Frederick, MD

2:32 AM EDT on October 23, 2019 (GMT -0400)
Frederick Municipal

Weather History for KFDK - August, 2019

Change the Weather History Date:

Wednesday, August 28, 2019

  Actual Average (WUND) Record (WUND)
Temperature  
Mean Temperature 74 °F -  
Max Temperature 80 °F - - (-1)
Min Temperature 69 °F - - (-1)
Cooling Degree Days 10    
Growing Degree Days 24 (Base 50)    
Moisture  
Dew Point 67 °F    
Average Humidity 84    
Maximum Humidity 94    
Minimum Humidity 65    
Precipitation  
Precipitation 0.00 in - - ()
Sea Level Pressure  
Sea Level Pressure 29.93 in    
Wind  
Wind Speed 1 mph (West)    
Max Wind Speed 17 mph    
Max Gust Speed 23 mph    
Visibility 9 miles    
Events Rain , Thunderstorm    
Averages and records for this station are not official NWS values.
T = Trace of Precipitation, MM = Missing Value Source: NWS Daily Summary

Daily Weather History Graph

Daily Weather History Graph

Search for Another Location

Airport or City:

Astronomy

Aug. 28, 2019 Rise Set
Actual Time 6:33 AM EDT 7:46 PM EDT
Civil Twilight 6:06 AM EDT 8:14 PM EDT
Nautical Twilight 5:32 AM EDT 8:47 PM EDT
Astronomical Twilight 4:58 AM EDT 9:22 PM EDT
Moon 4:04 AM EDT (8/28) 6:56 PM EDT (8/28)
Length of Visible Light 14h 08m
Length of Day
13h 12m
Waning Crescent, 5% of the Moon is Illuminated
Aug 28
Waning Crescent
Aug 30
New
Sep 5
First Quarter
Sep 14
Full
Sep 21
Last Quarter

Hourly Weather History & Observations

Time (EDT) Temp. Heat Index Dew Point Humidity Pressure Visibility Wind Dir Wind Speed Gust Speed Precip Events Conditions
12:10 AM 71.6 °F - 64.4 °F 78% 30.00 in 10.0 mi Calm Calm - N/A   Overcast
12:30 AM 71.6 °F - 64.4 °F 78% 30.00 in 10.0 mi Calm Calm - N/A   Overcast
12:50 AM 71.6 °F - 64.4 °F 78% 30.00 in 10.0 mi Calm Calm - N/A   Overcast
1:30 AM 71.6 °F - 64.4 °F 78% 30.00 in 10.0 mi Calm Calm - N/A   Overcast
1:50 AM 71.6 °F - 64.4 °F 78% 29.99 in 10.0 mi Calm Calm - N/A   Overcast
2:10 AM 71.6 °F - 66.2 °F 83% 29.99 in 10.0 mi Calm Calm - N/A   Overcast
2:30 AM 71.6 °F - 66.2 °F 83% 29.98 in 10.0 mi Calm Calm - N/A   Overcast
2:50 AM 71.6 °F - 66.2 °F 83% 29.97 in 10.0 mi Calm Calm - N/A   Overcast
3:10 AM 71.6 °F - 68.0 °F 88% 29.97 in 10.0 mi Calm Calm - N/A   Overcast
3:30 AM 71.6 °F - 68.0 °F 88% 29.97 in 10.0 mi Calm Calm - N/A   Overcast
3:50 AM 71.6 °F - 68.0 °F 88% 29.97 in 10.0 mi Calm Calm - N/A   Overcast
4:10 AM 69.8 °F - 68.0 °F 94% 29.96 in 10.0 mi Calm Calm - N/A   Overcast
4:30 AM 69.8 °F - 68.0 °F 94% 29.96 in 10.0 mi Calm Calm - N/A   Overcast
4:50 AM 69.8 °F - 68.0 °F 94% 29.95 in 10.0 mi Calm Calm - N/A   Overcast
5:10 AM 69.8 °F - 68.0 °F 94% 29.95 in 10.0 mi Calm Calm - N/A   Overcast
5:30 AM 69.8 °F - 68.0 °F 94% 29.95 in 10.0 mi Calm Calm - N/A   Overcast
5:50 AM 69.8 °F - 68.0 °F 94% 29.95 in 10.0 mi Calm Calm - N/A   Overcast
6:10 AM 69.8 °F - 68.0 °F 94% 29.95 in 10.0 mi Calm Calm - N/A   Overcast
6:30 AM 69.8 °F - 68.0 °F 94% 29.96 in 10.0 mi Calm Calm - N/A   Overcast
6:50 AM 69.8 °F - 68.0 °F 94% 29.96 in 5.0 mi Calm Calm - N/A Rain Light Rain
7:05 AM 69.8 °F - 68.0 °F 94% 29.95 in 7.0 mi Calm Calm - N/A   Overcast
7:47 AM 69.8 °F - 68.0 °F 94% 29.91 in 7.0 mi Calm Calm - N/A   Overcast
8:47 AM 69.8 °F - 68.0 °F 94% 29.90 in 7.0 mi Calm Calm - N/A   Overcast
9:47 AM 69.8 °F - 68.0 °F 94% 29.90 in 7.0 mi Calm Calm - N/A   Overcast
11:47 AM 78.8 °F - 69.8 °F 74% 29.88 in 7.0 mi Variable 3.5 mph - N/A   Overcast
12:47 PM 80.6 °F 83.2 °F 68.0 °F 65% 29.87 in 7.0 mi Variable 3.5 mph - N/A   Mostly Cloudy
1:47 PM 80.6 °F 83.2 °F 68.0 °F 65% 29.88 in 7.0 mi Variable 5.8 mph - N/A   Mostly Cloudy
2:47 PM 80.6 °F 83.2 °F 68.0 °F 65% 29.87 in 4.0 mi Variable 5.8 mph - N/A Rain Light Rain
3:12 PM 80.6 °F 83.2 °F 68.0 °F 65% 29.87 in 1.0 mi West 17.3 mph 23.0 mph N/A Rain , Thunderstorm Heavy Thunderstorms and Rain
3:47 PM 73.4 °F - 69.8 °F 88% 29.88 in 7.0 mi Variable 5.8 mph - N/A Rain Rain
4:47 PM 73.4 °F - 69.8 °F 88% 29.87 in 10.0 mi Calm Calm - N/A   Overcast
5:47 PM 77.0 °F - 68.0 °F 74% 29.87 in 10.0 mi Calm Calm - N/A   Mostly Cloudy
6:45 PM 77.0 °F - 66.2 °F 69% 29.87 in 10.0 mi Variable 3.5 mph - N/A   Mostly Cloudy
7:47 PM 75.2 °F - 69.8 °F 83% 29.87 in 10.0 mi Calm Calm - N/A   Clear
8:47 PM 73.4 °F - 66.2 °F 78% 29.88 in 10.0 mi Calm Calm - N/A   Clear
9:20 PM - - - N/A% - - North - - N/A   Unknown
9:40 PM - - - N/A% - - North - - N/A   Unknown
10:00 PM - - - N/A% - - North - - N/A   Unknown
10:20 PM - - - N/A% - - North - - N/A   Unknown
10:40 PM - - - N/A% - - North - - N/A   Unknown
11:00 PM - - - N/A% - - North - - N/A   Unknown
11:20 PM - - - N/A% - - North - - N/A   Unknown
11:40 PM - - - N/A% - - North - - N/A   Unknown